Regional Weather Roundup
Issued by NWS Bismarck, ND

Home | Current Version | Previous Version | Text Only | Print | Product List | Glossary On
Versions: 1 2 3 4 5 6 7 8 9 10 11 12 13 14 15 16 17 18 19 20 21 22 23 24 25 26 27 28 29 30 31 32 33 34 35 36 37 38 39 40 41 42 43 44 45 46 47 48 49 50
000
ASUS43 KBIS 031310
RWRBIS

NWR BROADCAST TEXT
NATIONAL WEATHER SERVICE BISMARCK ND
800 AM CDT MON AUG 03 2015

NOTE: "FAIR" INDICATES FEW OR NO CLOUDS BELOW 12,000 FEET WITH NO
SIGNIFICANT WEATHER AND/OR OBSTRUCTIONS TO VISIBILITY.


CITY           SKY/WX    TMP DP  RH WIND       PRES   REMARKS
WILLISTON      SUNNY     56  50  80 CALM      30.05R
MINOT          SUNNY     59  49  69 W7        30.01R
MINOT AFB      SUNNY     57  55  91 W6        30.00R
BISMARCK       SUNNY     59  53  80 W5        30.03R
DICKINSON      SUNNY     55  50  83 CALM      30.05R
GARRISON         N/A     56  52  86 NW3       30.03R
HETTINGER ARPT SUNNY     51  47  86 CALM      30.07R
JAMESTOWN      SUNNY     60  52  74 NW10      29.98R
CROSBY         FAIR      55  55 100 S5        30.05R
HARVEY         FAIR      57  54  88 W3        30.01R
HAZEN          FAIR      52  50  93 CALM      30.05R
LINTON         FAIR      55  55 100 CALM      30.03R
OAKES            N/A     57  55  94 W6        29.99R
STANLEY        FAIR      55  55 100 CALM      30.05S
$$

CITY           SKY/WX    TMP DP  RH WIND       PRES   REMARKS
GRAND FORKS    SUNNY     57  52  83 W7        29.92R
GRAND FORKS AF SUNNY     57  51  80 W9        29.93R
DEVILS LAKE    SUNNY     57  48  72 NW9       29.96S
FARGO          SUNNY     59  52  77 VRB3      29.93S
CAVALIER       FAIR      57  50  77 NW8       29.93R
GRAFTON        FAIR      57  50  77 NW9       29.93R
GWINNER        FAIR      61  54  77 SW6       29.98R
LANGDON        FAIR      52  50  93 NW8       29.97R
ROLLA          FAIR      57  50  77 NW9       30.00R
WALHALLA       FAIR      57  55  94 MISG      29.94R
$$

CITY           SKY/WX    TMP DP  RH WIND       PRES   REMARKS
ABERDEEN       SUNNY     61  53  75 CALM      29.99R
MOBRIDGE       SUNNY     61  59  93 CALM      30.00R
BUFFALO          N/A     57  49  74 NE9       30.00R
RAPID CITY     MOSUNNY   63  54  72 CALM      30.05R
GLASGOW        SUNNY     59  49  69 E9        30.03R
SIDNEY         SUNNY     55  48  76 NW3       30.05R
WOLF POINT     SUNNY     56  48  74 CALM      30.05R
GLENDIVE         N/A    N/A N/A N/A MISG        N/A
MILES CITY     SUNNY     60  49  66 NE12      30.01S
BAKER          SUNNY     58  48  69 SE6       30.06F
$$

CITY           SKY/WX    TMP DP  RH WIND       PRES   REMARKS
BILLINGS       PTCLDY    63  46  54 N6        30.02R
GREAT FALLS    PTCLDY    58  46  64 CALM      29.95R
REGINA         MOSUNNY   57  52  82 S2        30.04R
$$




USA.gov is the U.S. government's official web portal to all federal, state and local government web resources and services.